FW7782 Weather Reports


time (UTC)temp
F
wind
direction
speed
knots
gust
knots
rain 1hr
in
rain 24hr
in
rain mn
in
humidity
%
barometer
mb
20260507141551 65 86 5.2 8.7 0.00 0.00 0.00 84 1010.3
20260507134550 65 108 4.3 7.8 0.00 0.00 0.00 80 1010.6
20260507133057 65 89 2.6 10.4 0.00 0.00 0.00 81 1010.6
20260507131554 65 127 3.5 11.3 0.00 0.00 0.00 82 1010.6
20260507130105 65 103 4.3 9.6 0.00 0.00 0.00 80 1010.8
20260507124600 66 115 7.0 13.0 0.00 0.00 0.00 77 1011.2
20260507123053 67 81 6.1 10.4 0.00 0.00 0.00 72 1011.2
20260507121554 67 75 5.2 12.2 0.00 0.00 0.00 74 1011.1
20260507120047 67 94 5.2 13.0 0.00 0.00 0.00 73 1011.1
20260507114551 67 84 8.7 13.9 0.00 0.00 0.00 74 1011.1
20260507113059 66 54 7.8 14.8 0.00 0.00 0.00 74 1011.2
20260507111548 67 88 7.0 13.0 0.00 0.00 0.00 72 1011.5
20260507110057 67 25 9.6 13.9 0.00 0.00 0.00 73 1011.5
20260507104555 67 71 6.1 13.0 0.00 0.00 0.00 75 1011.7
20260507103115 66 66 7.8 13.9 0.00 0.00 0.00 76 1011.6
20260507101553 66 53 8.7 13.9 0.00 0.00 0.00 75 1011.8
20260507100106 66 121 7.0 13.9 0.00 0.00 0.00 77 1011.8
20260507094550 66 46 6.1 12.2 0.00 0.00 0.00 76 1011.7
20260507093056 66 68 5.2 12.2 0.00 0.00 0.00 76 1011.9
20260507091550 66 83 7.0 12.2 0.00 0.00 0.00 76 1012.0
20260507090058 66 61 6.1 10.4 0.00 0.00 0.00 74 1011.8
20260507084558 66 66 7.8 13.0 0.00 0.00 0.00 74 1011.9
20260507083045 66 11 6.1 12.2 0.00 0.00 0.00 74 1011.9
20260507081555 65 42 6.1 12.2 0.00 0.00 0.00 75 1011.8
20260507080053 65 4 4.3 8.7 0.00 0.00 0.00 75 1011.8
20260507074548 65 68 5.2 10.4 0.00 0.00 0.00 75 1011.8
20260507073049 65 51 3.5 10.4 0.00 0.00 0.00 75 1011.6
20260507071549 64 42 3.5 7.8 0.00 0.00 0.00 75 1011.4
20260507070106 64 23 6.1 8.7 0.00 0.00 0.00 76 1011.3
20260507064556 63 42 4.3 7.0 0.00 0.00 0.00 78 1011.0
20260507063057 61 17 4.3 7.8 0.00 0.00 0.00 80 1011.2
20260507061552 60 15 3.5 5.2 0.00 0.00 0.00 82 1011.0
20260507060058 59 32 2.6 4.3 0.00 0.00 0.00 82 1011.1
20260507054607 59 21 3.5 5.2 0.00 0.00 0.00 82 1011.1
20260507053103 59 8 3.5 5.2 0.00 0.00 0.00 82 1011.1
20260507051557 59 17 3.5 5.2 0.00 0.00 0.00 83 1010.8
20260507050054 58 39 2.6 5.2 0.00 0.00 0.00 84 1010.8
20260507044556 58 30 3.5 4.3 0.00 0.00 0.00 84 1010.9
20260507043057 58 18 3.5 4.3 0.00 0.00 0.00 84 1010.7
20260507041600 58 7 3.5 5.2 0.00 0.00 0.00 84 1010.6
20260507040054 58 23 3.5 5.2 0.00 0.00 0.00 83 1010.6
20260507034551 59 34 3.5 5.2 0.00 0.00 0.00 82 1010.4
20260507033053 59 36 2.6 7.0 0.00 0.00 0.00 82 1010.6
20260507031548 60 20 3.5 5.2 0.00 0.00 0.00 81 1010.6
20260507030052 60 36 3.5 5.2 0.00 0.00 0.00 81 1010.7
20260507024554 60 34 3.5 7.0 0.00 0.00 0.00 80 1010.8
20260507023055 61 47 4.3 7.0 0.00 0.00 0.00 79 1010.7
20260507021604 61 27 3.5 5.2 0.00 0.00 0.00 80 1010.9
20260507020106 60 37 3.5 5.2 0.00 0.00 0.00 81 1011.2
20260507014621 60 33 2.6 4.3 0.00 0.00 0.00 82 1011.2
20260507013056 61 26 3.5 7.0 0.00 0.00 0.00 81 1011.2
20260507011600 60 38 3.5 6.1 0.00 0.00 0.00 83 1011.2
20260507010055 60 39 4.3 7.0 0.00 0.00 0.00 83 1011.1
20260507004553 60 31 3.5 5.2 0.00 0.00 0.00 84 1011.3
20260507003054 60 23 3.5 5.2 0.00 0.00 0.00 85 1011.3
20260507001602 60 31 3.5 6.1 0.00 0.00 0.00 85 1011.4
20260507000122 60 37 4.3 5.2 0.00 0.00 0.00 85 1011.5
20260506234612 60 31 2.6 5.2 0.00 0.00 0.00 86 1011.7
20260506233053 61 33 2.6 6.1 0.00 0.00 0.00 86 1011.8
20260506231549 61 39 4.3 6.1 0.00 0.00 0.00 86 1011.7
20260506230100 61 37 2.6 4.3 0.00 0.00 0.00 86 1011.8
20260506224552 62 33 2.6 5.2 0.00 0.00 0.00 86 1011.8
20260506223051 62 29 2.6 4.3 0.00 0.00 0.00 86 1011.6
20260506221559 62 15 1.7 4.3 0.00 0.00 0.00 86 1011.7
20260506220052 63 32 1.7 4.3 0.00 0.00 0.00 84 1011.8
20260506214549 64 53 1.7 4.3 0.00 0.00 0.00 85 1011.9
20260506213056 64 87 2.6 6.1 0.00 0.00 0.00 84 1012.2
20260506211554 64 41 0.9 5.2 0.00 0.00 0.00 84 1012.4
20260506210051 64 92 1.7 4.3 0.00 0.00 0.00 84 1012.1
20260506204551 64 96 2.6 4.3 0.00 0.00 0.00 84 1012.0
20260506203054 64 54 2.6 5.2 0.00 0.00 0.00 84 1012.0
20260506201552 64 72 2.6 6.1 0.00 0.00 0.00 84 1011.8
20260506200047 64 66 3.5 7.0 0.00 0.00 0.00 84 1011.5
20260506194556 64 87 3.5 7.0 0.00 0.00 0.00 83 1011.3
20260506193052 64 98 2.6 7.0 0.00 0.00 0.00 83 1011.2
20260506191559 64 89 2.6 7.0 0.00 0.00 0.00 83 1011.0
20260506190052 64 103 4.3 7.0 0.00 0.00 0.00 83 1010.9
20260506184556 64 68 4.3 8.7 0.00 0.00 0.00 82 1010.7
20260506183101 65 79 6.1 11.3 0.00 0.00 0.00 82 1010.7
20260506181603 65 72 7.0 11.3 0.00 0.00 0.00 81 1010.6
20260506180054 65 100 4.3 12.2 0.00 0.00 0.00 81 1010.6
20260506174551 65 124 5.2 10.4 0.00 0.00 0.00 80 1010.6
20260506173119 66 70 5.2 12.2 0.00 0.00 0.00 80 1010.7
20260506171549 66 117 7.0 15.6 0.00 0.00 0.00 79 1010.8
20260506170104 66 85 8.7 13.0 0.00 0.00 0.00 77 1010.5
20260506164552 66 116 8.7 14.8 0.00 0.00 0.00 78 1010.4
20260506163059 66 76 7.0 15.6 0.00 0.00 0.00 77 1010.5
20260506161555 66 113 9.6 14.8 0.00 0.00 0.00 78 1010.3
20260506160059 67 76 7.8 13.9 0.00 0.00 0.00 76 1010.6
20260506154610 67 85 7.8 15.6 0.00 0.00 0.00 76 1010.1
20260506153059 67 121 8.7 17.4 0.00 0.00 0.00 77 1010.4
20260506151554 67 148 8.7 17.4 0.00 0.00 0.00 75 1010.4
20260506150051 67 95 8.7 17.4 0.00 0.00 0.00 75 1010.5
20260506144555 67 44 7.0 16.5 0.00 0.00 0.00 74 1010.7
20260506143051 68 70 9.6 13.9 0.00 0.00 0.00 73 1010.9